DW1083 Weather Reports


time (UTC)temp
F
wind
direction
speed
knots
gust
knots
rain 1hr
in
rain 24hr
in
rain mn
in
humidity
%
barometer
mb
20260509043311 46 0 0.0 0.0 0.00 0.00 0.00 87 1017.2
20260509040310 46 0 0.0 0.0 0.00 0.00 0.00 87 1017.2
20260509033310 46 0 0.0 0.0 0.00 0.00 0.00 86 1017.4
20260509030310 45 0 0.0 0.0 0.00 0.00 0.00 85 1017.4
20260509023310 46 0 0.0 0.0 0.00 0.00 0.00 84 1017.8
20260509020310 47 0 0.0 0.0 0.00 0.00 0.00 81 1017.9
20260509013310 49 0 0.0 0.0 0.00 0.00 0.00 80 1018.5
20260509010309 49 0 0.0 0.0 0.00 0.00 0.00 82 1018.6
20260509003310 48 0 0.0 0.0 0.00 0.00 0.00 82 1018.3
20260508233309 48 0 0.0 0.0 0.00 0.00 0.00 80 1018.1
20260508230309 48 0 0.0 0.0 0.00 0.00 0.00 80 1018.4
20260508223309 49 0 0.0 0.0 0.00 0.00 0.00 78 1018.4
20260508220311 50 0 0.0 0.0 0.00 0.00 0.00 77 1018.5
20260508213311 50 0 0.0 0.0 0.00 0.00 0.00 76 1018.1
20260508210318 50 0 0.0 0.0 0.00 0.00 0.00 76 1017.7
20260508203311 51 0 0.0 0.0 0.00 0.00 0.00 74 1017.6
20260508200311 51 0 0.0 0.0 0.00 0.00 0.00 73 1017.3
20260508193311 51 292 0.0 1.7 0.00 0.00 0.00 73 1016.8
20260508190311 51 0 0.0 0.0 0.00 0.00 0.00 70 1016.0
20260508183311 53 0 0.0 0.0 0.00 0.00 0.00 67 1015.6
20260508180310 55 292 1.7 2.6 0.00 0.00 0.00 67 1015.4
20260508173310 57 0 0.0 0.0 0.00 0.00 0.00 64 1014.8
20260508170310 59 270 0.0 1.7 0.00 0.00 0.00 62 1014.8
20260508163310 60 157 0.0 1.7 0.00 0.00 0.00 53 1014.7
20260508160310 60 157 0.9 1.7 0.00 0.00 0.00 55 1014.6
20260508153310 61 157 0.0 2.6 0.00 0.00 0.00 56 1014.7
20260508150308 61 112 0.9 2.6 0.00 0.00 0.00 57 1015.0
20260508143313 62 180 0.9 3.5 0.00 0.00 0.00 55 1015.3
20260508133313 64 180 1.7 6.1 0.00 0.00 0.00 52 1015.8
20260508130312 64 157 3.5 7.0 0.00 0.00 0.00 57 1015.8
20260508123313 63 180 4.3 13.0 0.00 0.00 0.00 57 1016.1
20260508120312 62 180 1.7 7.0 0.00 0.00 0.00 63 1016.3
20260508113313 60 225 1.7 4.3 0.00 0.00 0.00 64 1016.3
20260508110312 60 157 1.7 5.2 0.00 0.00 0.00 64 1016.3
20260508103312 60 157 3.5 8.7 0.00 0.00 0.00 63 1016.4
20260508100312 60 180 2.6 7.0 0.00 0.00 0.00 68 1016.8
20260508093312 58 157 3.5 6.1 0.00 0.00 0.00 71 1016.8
20260508090312 57 157 3.5 7.0 0.00 0.00 0.00 72 1016.6
20260508080312 54 157 2.6 4.3 0.00 0.00 0.00 77 1016.5
20260508070311 50 0 0.0 0.0 0.00 0.00 0.00 79 1016.0
20260508063311 48 0 0.0 0.0 0.00 0.00 0.00 82 1016.2
20260508060311 46 0 0.0 0.0 0.00 0.00 0.00 88 1015.5
20260508050311 39 0 0.0 0.0 0.00 0.00 0.00 93 1014.9